Hourly Weather Almachar

Today, 7 March, Sunday

Time Temperature Precipitation Wind Pressure Humidity
00:00 +13°C° 0.2 mm 2 mps 737 mmHg 87%
01:00 +13°C° 0.5 mm 2 mps 736 mmHg 89%
02:00 +13°C° 0.5 mm 1 mps 736 mmHg 90%
03:00 +12°C° 0.5 mm 1 mps 736 mmHg 91%
04:00 +12°C° 0.6 mm 1 mps 736 mmHg 91%
05:00 +12°C° 0.6 mm 1 mps 736 mmHg 91%
06:00 +12°C° 0.6 mm 1 mps 736 mmHg 92%
07:00 +13°C° 1.2 mm 1 mps 736 mmHg 91%
08:00 +13°C° 1.2 mm 1 mps 736 mmHg 90%
09:00 +13°C° 1.2 mm 2 mps 736 mmHg 89%
10:00 +14°C° 0.5 mm 2 mps 736 mmHg 84%
11:00 +15°C° 0.5 mm 2 mps 736 mmHg 79%
12:00 +15°C° 0.5 mm 2 mps 736 mmHg 74%
13:00 +16°C° 0.5 mm 2 mps 736 mmHg 73%
14:00 +16°C° 0.5 mm 3 mps 735 mmHg 72%
15:00 +17°C° 0.5 mm 3 mps 735 mmHg 71%
16:00 +16°C° 0.6 mm 3 mps 735 mmHg 76%
17:00 +14°C° 0.6 mm 3 mps 735 mmHg 81%
18:00 +13°C° 0.6 mm 3 mps 735 mmHg 86%
19:00 +13°C° 0.2 mm 2 mps 735 mmHg 86%
20:00 +13°C° 0.2 mm 2 mps 735 mmHg 87%
21:00 +12°C° 0.2 mm 1 mps 735 mmHg 88%
22:00 +12°C° 0.1 mm 1 mps 735 mmHg 87%
23:00 +12°C° 0.1 mm 1 mps 735 mmHg 87%

Tomorrow, 8 March, Monday

Time Temperature Precipitation Wind Pressure Humidity
00:00 +11°C° 0.1 mm 1 mps 735 mmHg 86%
01:00 +11°C° 0.1 mm 1 mps 735 mmHg 85%
02:00 +11°C° 0.1 mm 1 mps 734 mmHg 84%
03:00 +11°C° 0.1 mm 1 mps 734 mmHg 84%
04:00 +11°C° 0 mm 1 mps 734 mmHg 84%
05:00 +10°C° 0 mm 1 mps 734 mmHg 84%
06:00 +10°C° 0 mm 1 mps 734 mmHg 83%
07:00 +12°C° 0 mm 1 mps 734 mmHg 79%
08:00 +13°C° 0 mm 1 mps 735 mmHg 75%
09:00 +15°C° 0 mm 1 mps 735 mmHg 70%
10:00 +15°C° 0.1 mm 1 mps 735 mmHg 66%
11:00 +16°C° 0.1 mm 2 mps 735 mmHg 62%
12:00 +17°C° 0.1 mm 3 mps 735 mmHg 58%
13:00 +17°C° 0.4 mm 3 mps 734 mmHg 59%
14:00 +17°C° 0.4 mm 3 mps 734 mmHg 61%
15:00 +17°C° 0.4 mm 4 mps 734 mmHg 62%
16:00 +16°C° 0.3 mm 3 mps 734 mmHg 67%
17:00 +14°C° 0.3 mm 3 mps 733 mmHg 72%
18:00 +13°C° 0.3 mm 3 mps 733 mmHg 77%
19:00 +12°C° 0.1 mm 3 mps 734 mmHg 79%
20:00 +11°C° 0.1 mm 3 mps 734 mmHg 82%
21:00 +10°C° 0.1 mm 3 mps 735 mmHg 84%
22:00 +10°C° 0 mm 3 mps 735 mmHg 83%
23:00 +9°C° 0 mm 2 mps 735 mmHg 81%

Day after tomorrow, 9 March, Tuesday

Time Temperature Precipitation Wind Pressure Humidity
00:00 +9°C° 0 mm 2 mps 735 mmHg 80%
01:00 +9°C° 0 mm 2 mps 735 mmHg 79%
02:00 +8°C° 0 mm 2 mps 735 mmHg 79%
03:00 +8°C° 0 mm 2 mps 735 mmHg 79%
04:00 +8°C° 0 mm 2 mps 735 mmHg 79%
05:00 +8°C° 0 mm 2 mps 735 mmHg 79%
06:00 +8°C° 0 mm 2 mps 735 mmHg 80%
07:00 +9°C° 0 mm 2 mps 735 mmHg 76%
08:00 +12°C° 0 mm 1 mps 736 mmHg 72%
09:00 +13°C° 0 mm 1 mps 736 mmHg 68%
10:00 +14°C° 0.2 mm 2 mps 737 mmHg 68%
11:00 +14°C° 0.2 mm 2 mps 737 mmHg 67%
12:00 +15°C° 0.2 mm 2 mps 737 mmHg 67%
13:00 +14°C° 0.3 mm 3 mps 737 mmHg 70%
14:00 +14°C° 0.3 mm 3 mps 736 mmHg 73%
15:00 +13°C° 0.3 mm 4 mps 736 mmHg 75%
16:00 +13°C° 0.1 mm 3 mps 736 mmHg 78%
17:00 +12°C° 0.1 mm 3 mps 736 mmHg 80%
18:00 +12°C° 0.1 mm 2 mps 737 mmHg 83%
19:00 +10°C° 0 mm 2 mps 737 mmHg 84%
20:00 +10°C° 0 mm 2 mps 738 mmHg 86%
21:00 +10°C° 0 mm 1 mps 739 mmHg 87%
22:00 +10°C° 0 mm 1 mps 739 mmHg 87%
23:00 +10°C° 0 mm 1 mps 739 mmHg 87%

10 March, Wednesday

Time Temperature Precipitation Wind Pressure Humidity
00:00 +10°C° 0 mm 1 mps 740 mmHg 87%
01:00 +10°C° 0 mm 1 mps 740 mmHg 88%
02:00 +10°C° 0 mm 1 mps 739 mmHg 89%
03:00 +10°C° 0 mm 1 mps 739 mmHg 89%
04:00 +10°C° 0 mm 1 mps 740 mmHg 89%
05:00 +9°C° 0 mm 1 mps 740 mmHg 89%
06:00 +9°C° 0 mm 1 mps 740 mmHg 89%
07:00 +11°C° 0 mm 1 mps 741 mmHg 85%
08:00 +12°C° 0 mm 1 mps 741 mmHg 80%
09:00 +13°C° 0 mm 1 mps 742 mmHg 75%
10:00 +14°C° 0 mm 1 mps 742 mmHg 72%
11:00 +15°C° 0 mm 1 mps 742 mmHg 69%
12:00 +16°C° 0 mm 2 mps 742 mmHg 66%
13:00 +16°C° 0 mm 2 mps 742 mmHg 67%
14:00 +16°C° 0 mm 2 mps 741 mmHg 67%
15:00 +16°C° 0 mm 2 mps 741 mmHg 68%
16:00 +15°C° 0 mm 2 mps 741 mmHg 73%
17:00 +14°C° 0 mm 1 mps 741 mmHg 79%
18:00 +13°C° 0 mm 1 mps 741 mmHg 84%
19:00 +13°C° 0 mm 1 mps 742 mmHg 85%
20:00 +12°C° 0 mm 1 mps 742 mmHg 86%
21:00 +10°C° 0 mm 0 mps 743 mmHg 88%
22:00 +11°C° 0 mm 1 mps 743 mmHg 88%
23:00 +11°C° 0 mm 1 mps 743 mmHg 88%

11 March, Thursday

Time Temperature Precipitation Wind Pressure Humidity
00:00 +11°C° 0 mm 1 mps 743 mmHg 89%
01:00 +10°C° 0 mm 1 mps 743 mmHg 88%
02:00 +10°C° 0 mm 1 mps 742 mmHg 88%
03:00 +10°C° 0 mm 1 mps 742 mmHg 88%
04:00 +10°C° 0 mm 1 mps 742 mmHg 87%
05:00 +10°C° 0 mm 1 mps 742 mmHg 85%
06:00 +10°C° 0 mm 1 mps 742 mmHg 84%
07:00 +12°C° 0 mm 1 mps 742 mmHg 78%
08:00 +13°C° 0 mm 1 mps 742 mmHg 73%
09:00 +14°C° 0 mm 0 mps 743 mmHg 67%
10:00 +16°C° 0 mm 1 mps 743 mmHg 65%
11:00 +18°C° 0 mm 1 mps 743 mmHg 62%
12:00 +18°C° 0 mm 2 mps 743 mmHg 60%
13:00 +18°C° 0 mm 2 mps 742 mmHg 60%
14:00 +18°C° 0 mm 2 mps 742 mmHg 60%
15:00 +18°C° 0 mm 2 mps 741 mmHg 60%
16:00 +17°C° 0 mm 2 mps 741 mmHg 64%
17:00 +16°C° 0 mm 1 mps 741 mmHg 68%
18:00 +15°C° 0 mm 1 mps 741 mmHg 73%
19:00 +15°C° 0 mm 1 mps 741 mmHg 74%
20:00 +14°C° 0 mm 1 mps 741 mmHg 75%
21:00 +13°C° 0 mm 1 mps 741 mmHg 76%
22:00 +13°C° 0 mm 1 mps 741 mmHg 77%
23:00 +12°C° 0 mm 1 mps 741 mmHg 77%

12 March, Friday

Time Temperature Precipitation Wind Pressure Humidity
00:00 +12°C° 0 mm 1 mps 741 mmHg 78%
01:00 +12°C° 0 mm 1 mps 740 mmHg 77%
02:00 +12°C° 0 mm 1 mps 740 mmHg 77%
03:00 +12°C° 0 mm 1 mps 740 mmHg 76%
04:00 +12°C° 0 mm 1 mps 740 mmHg 76%
05:00 +12°C° 0 mm 1 mps 739 mmHg 76%
06:00 +12°C° 0 mm 1 mps 739 mmHg 76%
07:00 +13°C° 0 mm 1 mps 740 mmHg 71%
08:00 +15°C° 0 mm 1 mps 740 mmHg 66%
09:00 +18°C° 0 mm 1 mps 740 mmHg 61%
10:00 +18°C° 0 mm 2 mps 740 mmHg 57%
11:00 +19°C° 0 mm 2 mps 740 mmHg 53%
12:00 +20°C° 0 mm 3 mps 740 mmHg 49%
13:00 +20°C° 0 mm 3 mps 740 mmHg 49%
14:00 +20°C° 0 mm 3 mps 739 mmHg 50%
15:00 +21°C° 0 mm 3 mps 738 mmHg 50%
16:00 +19°C° 0 mm 2 mps 738 mmHg 56%
17:00 +18°C° 0 mm 2 mps 738 mmHg 61%
18:00 +17°C° 0 mm 2 mps 738 mmHg 67%
19:00 +16°C° 0 mm 2 mps 738 mmHg 68%
20:00 +15°C° 0 mm 2 mps 738 mmHg 69%
21:00 +14°C° 0 mm 1 mps 738 mmHg 70%
22:00 +14°C° 0 mm 2 mps 738 mmHg 69%
23:00 +14°C° 0 mm 2 mps 738 mmHg 69%
Show more